DW8397 Weather Reports


Display with metric or nautical units.
time (UTC)temp
F
wind
direction
speed
MPH
gust
MPH
rain 1hr
in
rain 24hr
in
rain mn
in
humidity
%
barometer
mb
20260505153002 70 209 5.0 16.0 0.00 0.00 0.00 52 1005.5
20260505151605 69 196 4.0 25.0 0.00 0.00 0.00 51 1005.4
20260505124534 61 200 1.0 4.0 0.00 0.00 0.00 70 1006.3
20260505123045 59 211 2.0 8.0 0.00 0.00 0.00 73 1006.2
20260505121527 58 182 4.0 8.0 0.00 0.00 0.00 74 1006.1
20260505120023 58 211 1.0 5.0 0.00 0.00 0.00 73 1006.2
20260505114522 58 190 0.0 6.0 0.00 0.00 0.00 69 1006.4
20260505113019 56 211 0.0 11.0 0.00 0.00 0.00 69 1006.6
20260505111515 53 113 0.0 0.0 0.00 0.00 0.00 72 1006.9
20260505101506 52 151 0.0 0.0 0.00 0.00 0.00 72 1006.1
20260505100003 52 151 0.0 0.0 0.00 0.00 0.00 70 1006.0
20260505094501 52 129 0.0 0.0 0.00 0.00 0.00 71 1006.1
20260505093101 51 107 0.0 3.0 0.00 0.00 0.00 72 1006.1
20260505093002 51 105 0.0 3.0 0.00 0.00 0.00 72 1006.1
20260505091600 51 92 0.0 0.0 0.00 0.00 0.00 72 1006.1
20260505090100 51 92 0.0 0.0 0.00 0.00 0.00 71 1006.2
20260505084604 52 92 0.0 0.0 0.00 0.00 0.00 70 1006.3
20260505083109 52 92 0.0 0.0 0.00 0.00 0.00 69 1006.3
20260505081556 52 92 0.0 0.0 0.00 0.00 0.00 69 1006.4
20260505080103 51 92 0.0 0.0 0.00 0.00 0.00 70 1006.3
20260505074553 52 132 0.0 0.0 0.00 0.00 0.00 70 1006.4
20260505073058 52 132 0.0 0.0 0.00 0.00 0.00 68 1006.3
20260505071550 53 132 0.0 0.0 0.00 0.00 0.00 68 1006.4
20260505070050 53 132 0.0 0.0 0.00 0.00 0.00 67 1006.6
20260505064615 53 132 0.0 0.0 0.00 0.00 0.00 66 1006.7
20260505063045 53 132 1.0 3.0 0.00 0.00 0.00 66 1006.6
20260505061544 53 122 1.0 8.0 0.00 0.00 0.00 66 1006.7
20260505060044 53 79 0.0 0.0 0.00 0.00 0.00 67 1006.7
20260505054548 53 153 0.0 0.0 0.00 0.00 0.00 67 1006.8
20260505053041 53 153 0.0 3.0 0.00 0.00 0.00 65 1006.9
20260505051539 54 132 0.0 4.0 0.00 0.00 0.00 63 1007.0
20260505041533 53 132 0.0 2.0 0.00 0.00 0.00 62 1007.1
20260505040031 53 91 0.0 2.0 0.00 0.00 0.00 60 1007.0
20260505034538 54 165 0.0 3.0 0.00 0.00 0.00 60 1006.9
20260505033031 54 118 0.0 0.0 0.00 0.00 0.00 60 1006.7
20260505031530 54 118 0.0 4.0 0.00 0.00 0.00 60 1006.7
20260505030043 54 103 0.0 1.0 0.00 0.00 0.00 58 1006.7
20260505024529 55 149 0.0 0.0 0.00 0.00 0.00 58 1006.7
20260505023035 56 130 0.0 0.0 0.00 0.00 0.00 57 1006.9
20260505021530 56 144 0.0 1.0 0.00 0.00 0.00 56 1007.0
20260505020027 56 95 0.0 5.0 0.00 0.00 0.00 56 1007.0
20260505014535 56 157 0.0 2.0 0.00 0.00 0.00 55 1006.9
20260505013026 56 150 0.0 0.0 0.00 0.00 0.00 55 1006.9
20260505011526 57 150 0.0 0.0 0.00 0.00 0.00 55 1006.8
20260505010025 57 151 0.0 0.0 0.00 0.00 0.00 55 1006.7
20260505004550 58 151 0.0 0.0 0.00 0.00 0.00 53 1006.5
20260505003024 59 207 0.0 0.0 0.00 0.00 0.00 52 1006.4
20260505001524 60 207 0.0 0.0 0.00 0.00 0.00 48 1006.2
20260505000023 62 207 0.0 0.0 0.00 0.00 0.00 47 1006.1
20260504234523 62 211 1.0 5.0 0.00 0.00 0.00 45 1006.0
20260504233024 63 208 2.0 9.0 0.00 0.00 0.00 45 1005.7
20260504231522 63 200 0.0 7.0 0.00 0.00 0.00 45 1005.6
20260504230021 63 220 4.0 12.0 0.00 0.00 0.00 44 1005.5
20260504224526 64 181 4.0 10.0 0.00 0.00 0.00 44 1005.3
20260504223020 64 196 3.0 10.0 0.00 0.00 0.00 44 1005.4
20260504221522 64 214 7.0 15.0 0.00 0.00 0.00 43 1005.4
20260504220019 64 221 4.0 10.0 0.00 0.00 0.00 43 1005.3
20260504214518 65 190 5.0 17.0 0.00 0.00 0.00 43 1005.2
20260504213032 65 186 6.0 12.0 0.00 0.00 0.00 44 1005.2
20260504211516 65 230 1.0 13.0 0.00 0.00 0.00 44 1005.4
20260504210014 65 157 5.0 17.0 0.00 0.00 0.00 42 1005.5
20260504204513 66 188 9.0 15.0 0.00 0.00 0.00 42 1005.5
20260504203013 66 307 2.0 16.0 0.00 0.00 0.00 43 1005.6
20260504201511 65 213 9.0 17.0 0.00 0.00 0.00 42 1005.8
20260504200009 65 210 5.0 18.0 0.00 0.00 0.00 44 1005.9
20260504194512 64 220 6.0 16.0 0.00 0.00 0.00 44 1006.0
20260504193005 63 201 5.0 21.0 0.00 0.00 0.00 46 1006.1
20260504191503 62 325 4.0 18.0 0.00 0.00 0.00 46 1006.2
20260504190002 63 213 9.0 22.0 0.00 0.00 0.00 45 1006.3
20260504184609 62 231 4.0 15.0 0.00 0.00 0.00 47 1006.3
20260504183058 62 198 7.0 20.0 0.00 0.00 0.00 47 1006.3
20260504181559 60 192 7.0 17.0 0.00 0.00 0.00 48 1006.3
20260504180055 60 302 8.0 21.0 0.00 0.00 0.00 47 1006.4
20260504174553 59 194 9.0 19.0 0.00 0.00 0.00 48 1006.7
20260504173152 59 207 11.0 23.0 0.00 0.00 0.00 48 1006.8
20260504171552 60 200 9.0 18.0 0.00 0.00 0.00 48 1006.8